Regional Weather Roundup
Issued by NWS Columbia, SC

Home | Current Version | Previous Version | Text Only | Print | Product List | Glossary On
Versions: 1 2 3 4 5 6 7 8 9 10 11 12 13 14 15 16 17 18 19 20 21 22 23 24 25 26 27 28 29 30 31 32 33 34 35 36 37 38 39 40 41 42 43 44 45 46 47 48 49 50
000
ASUS42 KCAE 020410
RWRCAE
REGIONAL WEATHER ROUNDUP
NATIONAL WEATHER SERVICE COLUMBIA SC
1200 AM EDT THU OCT 02 2014

NOTE: "FAIR" INDICATES FEW OR NO CLOUDS BELOW 12,000 FEET WITH NO
SIGNIFICANT WEATHER AND/OR OBSTRUCTIONS TO VISIBILITY.

NOT ALL STATIONS ARE QUALITY CONTROLLED BY THE NATIONAL
WEATHER SERVICE. USE DATA WITH CAUTION...ESPECIALLY
DEWPOINT OBSERVATIONS.

SCZ001>056-GAZ040-063>065-077-020500-
...UPSTATE SOUTH CAROLINA...

CITY           SKY/WX    TMP DP  RH WIND       PRES   REMARKS
ANDERSON       CLEAR     64  61  90 CALM      30.04S
LIBERTY        FAIR      61  62 100 MISG      30.05S
SPARTANBURG    FAIR      70  70 100 CALM      30.04S
CLEMSON        CLEAR     70  60  70 N3        30.06R
GREENVILLE     PTCLDY    69  61  75 CALM      30.06R
GREENWOOD      CLEAR     64  61  90 CALM      30.05S
GREER          MOCLDY    68  63  84 CALM      30.04R
ROCK HILL      CLEAR     63  62  97 CALM      30.05S FOG
CHESTER        FAIR      66  61  82 CALM      30.10R
LAURENS        FAIR      64 N/A N/A S3        30.05R


...CENTRAL SOUTH CAROLINA...

CITY           SKY/WX    TMP DP  RH WIND       PRES   REMARKS
COLUMBIA APT   PTCLDY    70  61  73 SW3       30.03R
COLUMBIA OWENS CLEAR     68  64  87 CALM      30.05R
DARLINGTON     CLOUDY    70  64  83 SE3       30.05S
FLORENCE       PTCLDY    68  65  90 SE3       30.04S
MCENTIRE ANGB  CLEAR     66  65  96 SE2       30.04S
ORANGEBURG     CLEAR     67  64  90 CALM      30.04S
SUMTER SHAW    CLEAR     67  64  87 S3        30.03R
NEWBERRY       FAIR      64  63  94 S3        30.07R
AIKEN          FAIR      66  64  94 S5        30.08S
BARNWELL       FAIR      70  66  88 S3        30.05S
MANNING        FAIR      66 N/A N/A CALM      30.04S
CAMDEN         FAIR      64  63  94 CALM      30.05S
LANCASTER      FAIR      66  66 100 CALM      30.04F
WINNSBORO      FAIR      70  63  78 S5        30.04R


...EASTERN AND COASTAL SOUTH CAROLINA...

CITY           SKY/WX    TMP DP  RH WIND       PRES   REMARKS
MYRTLE BEACH   CLEAR     70  64  83 CALM      30.04S
N MYRTLE BCH   CLEAR     66  64  93 CALM      30.04R FOG
CONWAY         FAIR      64  64 100 CALM      30.05R
MARION         FAIR      68  66  94 CALM      30.04S
HARTSVILLE     FAIR      70  54  56 CALM      30.05S
FLORENCE       PTCLDY    68  65  90 SE3       30.04S
DARLINGTON     CLOUDY    70  64  83 SE3       30.05S
CHARLESTON APT PTCLDY    68  64  87 CALM      30.04R
MOUNT PLEASANT FAIR      64  64 100 CALM      30.04S FOG
WALTERBORO     CLEAR     68 N/A N/A CALM      30.05S
BEAUFORT       CLEAR     69  66  90 CALM      30.03S


...EASTERN GEORGIA...

CITY           SKY/WX    TMP DP  RH WIND       PRES   REMARKS
AUGUSTA BUSH F CLEAR     61  60  97 CALM      30.03R
AUGUSTA DANIEL CLEAR     72  63  73 SE5       30.05R
THOMSON        CLEAR     67  67 100 CALM      30.08S
WASHINGTON     FAIR      66  66 100 S5        30.04S
CLAXTON        FAIR      66  66 100 CALM      30.04S
SYLVANIA       PTCLDY    69  68  97 CALM      30.05S FOG
STATESBORO     PTCLDY    65  65 100 CALM      30.04S FOG
SAVANNAH       MOCLDY    68  65  90 CALM      30.03F


...SOUTHERN NORTH CAROLINA...

CITY           SKY/WX    TMP DP  RH WIND       PRES   REMARKS
CHARLOTTE      CLEAR     70  64  81 E6        30.05S
MONROE         CLEAR     66  63  90 CALM      30.05R
WADESBORO      CLEAR     63  61  93 N3        30.04S FOG
ROCKINGHAM     CLEAR     67  64  91 CALM      30.04S
RUTHERFORDTON  PTCLDY    64  63  94 N7        30.07S
ASHEVILLE      CLEAR     62  59  90 CALM      30.12R

$$



USA.gov is the U.S. government's official web portal to all federal, state and local government web resources and services.